Hourly Data Report for September 25, 2017

All times are specified in Local Standard Time (LST). Add 1 hour to adjust for Daylight Saving Time where and when it is observed.

PORT ALBERNI (AUT)
BRITISH COLUMBIA

49°18'59.700" N
124°55'36.600" W
76.20 m
1036B06
71475
WQC

Related Data

No related data is available for this station

Download Data

Hourly Data (September 2017)
Hourly Data Report for September 25, 2017
Temp Definition
°C
Dew Point Temp Definition
°C
Rel Hum Definition
%
Wind Dir Definition
10's deg

Wind Spd Definition
km/h
Visibility Definition
km
Stn Press Definition
kPa
Hmdx Definition


Wind Chill Definition


Weather Definition


TIME
00:00 14.0 12.4 90 10 9   100.94     LegendNANA
01:00 13.6 12.6 94 13 7   100.95     LegendNANA
02:00 13.4 12.7 95 10 7   100.91     LegendNANA
03:00 13.3 12.7 96 12 7   100.89     LegendNANA
04:00 13.2 12.7 97 16 4   100.89     LegendNANA
05:00 13.0 12.6 97 12 8   100.85     LegendNANA
06:00 13.0 12.6 97 14 3   100.86     LegendNANA
07:00 13.0 12.6 98 20 3   100.88     LegendNANA
08:00 13.6 13.1 97 11 5   100.89     LegendNANA
09:00 14.4 13.4 94 14 6   100.90     LegendNANA
10:00 15.2 13.7 90 14 5   100.88     LegendNANA
11:00 16.0 13.8 87 15 3   100.91     LegendNANA
12:00 17.1 13.7 81 14 4   100.93     LegendNANA
13:00 17.8 13.8 77 14 8   100.94     LegendNANA
14:00 18.2 13.9 76 14 8   100.91     LegendNANA
15:00 18.1 13.9 76 12 8   100.93     LegendNANA
16:00 18.4 14.0 75 12 9   100.92     LegendNANA
17:00 17.7 13.7 77 13 9   100.97     LegendNANA
18:00 16.9 14.0 83 13 5   100.98     LegendNANA
19:00 14.8 13.2 90 13 4   101.00     LegendNANA
20:00 15.0 14.2 95 33 2   101.07     LegendNANA
21:00 14.9 14.2 95 32 3   101.10     LegendNANA
22:00 13.4 12.8 96 27 12   101.13     LegendNANA
23:00 13.5 13.0 97 8 4   101.15     LegendNANA

Notes on Data Quality.

Legend

  • E = Estimated
  • M = Missing
  • NA = Not Available
  • ‡ = Partner data that is not subject to review by the National Climate Archives
Date modified: